Wind_Speed
39 38 38 37 36 35 37 38 39 37 36 34 34 35 35 35 35 36 36 36 36 36 36 36 37 39 41 42 43 43 44 45 46 47 47 47 47 48 48 49 48 49 50 50
40 39 39 39 36 36 37 37 38 38 36 34 36 36 35 35 36 36 37 37 37 37 36 37 38 40 41 42 43 43 44 45 46 47 48 48 48 49 47 48 48 48 49 48
41 39 41 40 35 35 36 36 37 37 35 35 35 35 35 35 35 36 36 37 37 38 38 37 38 39 40 42 43 43 44 44 46 46 46 47 48 49 49 49 49 49 49 48
43 41 42 38 35 35 36 36 36 37 36 35 34 34 35 35 34 35 36 36 36 36 37 38 38 38 39 41 43 44 45 44 45 46 45 46 48 50 50 50 50 50 50 48
42 43 42 36 34 35 36 35 35 35 35 35 35 35 34 34 34 34 35 35 36 35 36 36 37 38 39 40 42 44 46 46 45 45 45 45 47 49 50 51 52 52 52 50
41 42 41 36 34 35 37 36 34 34 35 35 36 35 33 34 34 34 34 34 34 35 35 35 36 37 38 38 40 42 43 44 44 45 45 46 47 49 49 50 52 52 52 51
40 41 40 35 35 35 36 35 35 35 34 35 35 35 34 34 33 34 34 34 34 35 36 36 35 36 36 38 39 39 41 43 44 44 45 46 47 48 49 50 51 52 52 50
39 41 39 35 35 35 35 36 36 36 35 35 35 34 34 34 34 34 34 34 34 35 36 36 35 36 36 37 38 38 39 40 42 44 45 46 47 48 48 49 51 52 52 51
40 40 37 36 36 36 36 36 36 36 36 36 35 35 35 35 34 34 34 35 35 35 35 36 36 36 36 37 37 38 39 40 41 42 44 45 45 46 47 47 49 49 51 51
40 37 36 36 36 36 37 37 37 37 36 36 36 35 35 34 34 34 35 35 34 35 35 35 36 37 36 36 37 37 38 38 39 41 42 44 45 45 46 46 48 48 49 49
38 35 36 35 35 36 36 36 36 36 35 35 35 35 35 34 34 35 35 34 34 34 34 35 35 36 37 37 37 36 36 36 37 38 40 42 44 45 44 45 46 47 48 49
37 34 36 34 33 34 34 34 35 34 34 34 34 33 33 33 33 33 33 33 34 34 34 34 35 35 35 36 36 36 36 36 36 36 37 40 42 44 44 45 45 45 47 47
36 35 35 33 32 32 33 33 33 33 33 33 33 33 33 32 31 31 31 32 32 33 34 34 34 34 34 34 34 34 34 35 35 35 37 38 40 42 43 44 44 44 45 46
35 35 34 32 32 32 33 33 33 33 32 32 32 32 32 31 30 30 31 31 31 31 32 33 33 33 33 34 33 33 33 34 34 33 34 36 38 40 42 43 43 43 44 44
34 34 34 33 33 33 33 33 33 32 32 31 31 31 30 29 29 29 30 30 30 30 31 31 32 32 32 33 33 33 33 33 33 33 33 34 36 39 41 42 42 41 42 43
33 34 34 33 33 33 33 33 32 31 30 29 29 29 29 28 28 29 29 29 29 29 30 30 31 31 31 32 32 32 31 32 32 33 33 34 35 37 39 40 41 41 41 42
32 32 32 33 33 32 32 32 31 30 29 29 29 29 28 28 28 28 29 29 29 29 29 30 30 30 31 31 30 30 30 31 31 31 32 32 33 35 37 38 39 40 40 41
32 32 32 32 32 32 31 30 30 29 29 29 28 28 28 28 28 28 28 28 28 29 29 29 29 29 29 29 29 29 29 29 30 30 31 32 31 32 34 36 37 38 39 39
29 29 29 30 31 30 29 29 29 30 29 29 29 28 28 28 27 27 27 27 27 27 28 28 28 28 27 28 28 28 28 28 28 29 30 31 30 30 31 33 35 36 37 37
27 28 28 29 30 29 29 29 29 29 29 29 28 28 27 27 26 26 26 27 27 27 27 28 28 27 27 26 27 27 26 27 27 27 28 29 29 29 29 30 32 35 35 36
27 27 27 28 29 29 29 29 28 28 28 28 28 27 26 26 26 26 26 26 26 27 27 27 27 26 26 26 26 26 25 25 26 27 28 28 28 28 29 29 30 33 34 34
26 26 26 26 26 26 26 26 26 26 26 26 26 26 26 25 25 25 25 25 25 25 25 24 24 24 24 25 25 25 24 24 25 27 27 27 28 28 29 29 29 31 32 32
25 24 24 24 23 23 23 24 24 24 24 25 25 25 24 24 23 23 24 24 23 23 23 23 22 22 22 22 23 23 23 24 25 26 27 27 27 27 28 28 28 29 30 31
24 24 24 23 22 22 22 22 23 23 23 23 23 22 22 22 21 21 21 20 20 20 20 20 20 21 21 20 21 22 23 23 24 25 26 27 26 26 27 27 27 28 29 29
23 23 23 23 22 22 22 22 22 22 21 21 21 20 20 20 19 19 18 18 18 19 19 19 19 19 19 20 20 21 22 22 22 23 25 26 26 26 26 26 26 27 27 28
22 22 22 22 22 22 22 22 22 21 20 19 19 19 19 18 18 18 18 18 18 18 18 18 19 19 19 20 20 20 21 21 22 22 23 25 25 25 26 26 26 26 26 27
21 21 21 21 21 20 20 20 19 19 18 18 18 18 18 18 18 17 17 17 17 17 17 17 18 19 19 19 19 20 20 20 21 21 22 23 24 24 25 25 25 24 25 26
Wind_Direction
287 287 286 285 284 282 280 281 281 282 282 285 281 278 275 271 268 266 264 263 261 258 258 256 252 249 245 243 243 243 243 243 243 242 241 240 237 235 234 234 234 235 235 235
285 286 284 284 285 282 280 279 281 282 283 283 280 277 274 272 270 267 265 263 261 260 260 256 253 250 247 245 243 243 243 244 243 241 241 239 238 236 235 234 234 235 235 237
284 283 282 283 285 282 279 278 280 282 284 281 279 278 276 273 270 267 265 263 263 261 258 257 255 252 250 248 245 244 243 245 243 241 240 239 238 237 236 235 235 234 235 237
284 283 281 287 283 280 279 279 280 281 281 280 279 278 277 275 272 269 265 264 263 262 258 257 256 253 251 249 247 245 244 244 242 240 240 239 238 237 236 236 235 235 236 237
284 284 285 285 284 282 280 281 281 280 280 280 278 277 277 276 274 271 267 264 262 261 258 256 255 254 253 250 248 246 245 244 243 241 239 238 237 237 237 237 236 237 237 238
283 283 285 287 284 282 280 281 280 280 280 280 278 277 276 275 273 271 269 267 264 260 258 257 256 255 253 250 249 246 245 244 243 242 241 240 237 237 237 236 237 238 237 237
282 283 285 288 284 282 281 282 280 280 279 279 279 279 277 275 273 270 270 268 265 261 259 259 257 257 255 252 250 248 247 246 244 242 241 241 239 237 237 237 238 237 236 237
280 281 286 285 282 281 281 280 280 280 279 279 279 279 278 276 273 270 270 269 267 263 260 259 258 257 257 256 253 250 248 247 245 243 241 241 239 238 237 238 238 238 236 236
278 280 282 282 281 281 281 280 280 280 280 280 280 279 279 277 274 271 270 269 268 265 261 259 259 257 257 256 254 252 249 248 247 244 242 240 238 238 236 236 237 237 238 236
277 278 279 280 281 281 280 280 280 281 281 281 280 279 278 275 273 271 270 269 267 265 263 260 259 257 256 254 254 253 251 249 247 246 243 240 238 237 237 236 236 237 238 237
278 279 279 279 280 279 279 279 279 280 281 282 280 278 276 274 273 272 270 268 267 266 264 261 259 258 256 254 253 253 252 250 248 246 244 242 239 237 237 236 236 237 236 237
279 279 278 278 277 278 280 280 280 280 280 280 280 279 277 275 273 271 269 268 266 265 264 262 259 257 257 256 255 255 253 251 249 246 245 243 239 237 236 236 236 237 236 237
278 276 276 277 278 280 280 279 279 278 279 279 279 279 277 275 273 271 269 268 267 265 263 262 260 258 257 257 256 255 254 252 249 247 246 243 240 237 235 235 235 236 236 237
275 275 275 276 277 278 278 278 278 278 279 279 279 279 276 274 272 270 269 270 268 266 263 262 260 258 256 256 255 254 253 252 251 248 246 243 240 238 235 234 234 234 235 236
274 274 274 275 276 277 277 277 277 279 280 279 279 278 276 274 271 270 269 270 269 267 264 261 258 257 256 256 256 255 253 251 250 247 246 243 239 237 235 233 232 232 232 233
275 275 274 275 277 277 277 277 278 279 279 278 278 278 275 273 271 270 270 270 269 268 264 261 258 257 257 255 255 254 253 252 249 247 245 243 240 237 234 232 231 231 231 231
275 275 275 276 277 277 277 278 279 279 278 278 278 277 275 275 273 272 271 270 269 267 264 261 260 258 257 255 254 253 252 251 249 247 245 242 239 236 234 233 231 230 229 230
277 276 277 277 277 277 277 277 278 278 278 279 278 277 276 275 275 273 271 270 268 267 265 263 261 259 258 256 254 253 252 249 246 245 242 239 237 236 234 232 230 228 228 228
278 278 278 278 278 277 275 276 277 277 277 278 278 278 276 276 275 273 271 269 268 266 265 262 260 259 258 256 253 251 250 247 244 242 238 235 234 235 232 230 228 226 225 226
278 278 279 279 278 276 274 275 276 275 275 276 277 276 276 275 275 273 271 270 269 267 263 261 259 257 256 254 252 252 251 246 241 238 234 232 233 232 231 229 226 224 223 224
281 281 281 280 278 276 275 275 275 275 276 276 276 274 273 273 273 273 272 271 269 267 264 260 258 256 254 253 252 251 249 245 239 235 232 230 231 231 229 227 225 225 224 224
283 283 283 282 279 277 277 276 275 275 276 275 274 272 271 271 272 272 271 270 269 266 262 259 256 254 253 252 250 248 245 241 237 234 232 231 232 230 228 227 226 224 223 223
284 284 284 283 280 277 277 278 277 276 276 275 274 272 271 270 271 271 270 269 267 264 260 256 253 252 251 249 247 245 242 238 236 234 232 232 231 229 229 228 226 223 220 221
285 285 284 282 279 278 277 278 278 277 277 277 275 273 269 270 271 271 270 267 264 261 257 253 251 250 248 247 245 242 241 239 237 235 232 229 227 226 226 225 223 221 219 219
285 284 283 281 279 278 278 280 279 278 278 278 277 275 272 271 270 268 266 264 261 258 254 251 248 246 245 245 243 241 239 237 234 231 229 226 223 222 220 219 219 219 218 216
284 284 284 284 283 281 279 279 278 276 276 276 275 274 273 272 271 269 266 264 261 257 252 248 245 244 244 243 242 240 238 236 232 229 224 221 219 218 217 216 216 218 219 217
286 285 286 285 283 281 280 279 276 274 274 273 273 272 272 271 271 269 265 261 258 254 250 247 245 243 242 242 240 238 235 232 228 223 220 219 217 215 213 212 213 215 216 215
Height
5561 5558 5555 5553 5552 5549 5545 5542 5539 5538 5537 5538 5535 5532 5531 5530 5529 5529 5529 5529 5529 5530 5531 5531 5532 5534 5537 5539 5542 5545 5548 5551 5555 5558 5562 5567 5572 5577 5582 5586 5592 5598 5604 5610
5550 5548 5543 5541 5542 5539 5536 5533 5530 5527 5527 5528 5523 5522 5521 5520 5519 5518 5518 5518 5519 5519 5520 5520 5521 5523 5526 5528 5531 5534 5537 5540 5543 5547 5551 5555 5560 5565 5570 5575 5581 5586 5593 5599
5537 5536 5531 5531 5533 5529 5525 5523 5521 5518 5518 5516 5514 5512 5511 5510 5509 5508 5508 5508 5508 5509 5509 5510 5510 5512 5514 5517 5519 5522 5526 5528 5532 5535 5539 5543 5548 5553 5558 5564 5569 5575 5581 5587
5524 5523 5519 5525 5521 5518 5514 5513 5512 5508 5507 5505 5503 5502 5501 5499 5498 5498 5497 5497 5497 5498 5498 5499 5500 5501 5502 5505 5508 5510 5514 5516 5519 5523 5527 5531 5536 5541 5547 5552 5557 5563 5569 5575
5512 5509 5508 5513 5511 5506 5502 5503 5502 5498 5496 5495 5493 5491 5491 5489 5488 5487 5487 5487 5487 5487 5487 5488 5489 5490 5491 5493 5496 5498 5501 5505 5507 5511 5515 5519 5524 5530 5535 5540 5546 5551 5557 5563
5501 5497 5496 5502 5499 5494 5492 5492 5491 5488 5486 5484 5482 5481 5482 5479 5477 5477 5476 5476 5476 5476 5477 5477 5478 5478 5480 5482 5484 5487 5490 5493 5496 5499 5503 5507 5512 5517 5522 5528 5534 5539 5545 5551
5490 5485 5486 5490 5486 5483 5482 5482 5479 5477 5475 5473 5471 5470 5470 5468 5467 5466 5465 5465 5465 5465 5466 5466 5467 5468 5469 5471 5473 5475 5478 5481 5484 5487 5491 5495 5500 5505 5510 5516 5522 5528 5534 5540
5479 5476 5479 5478 5474 5472 5471 5469 5467 5465 5464 5462 5461 5459 5458 5457 5456 5455 5455 5454 5454 5454 5455 5456 5456 5457 5458 5460 5461 5464 5467 5469 5472 5475 5479 5483 5488 5493 5498 5504 5510 5515 5521 5527
5469 5469 5468 5465 5463 5461 5459 5457 5456 5454 5453 5452 5450 5448 5447 5446 5445 5444 5444 5443 5443 5443 5444 5445 5445 5446 5448 5449 5451 5453 5456 5458 5461 5464 5467 5471 5476 5481 5486 5491 5497 5503 5509 5515
5456 5458 5457 5454 5451 5449 5447 5445 5444 5443 5442 5440 5438 5437 5436 5435 5434 5434 5433 5433 5433 5433 5433 5434 5435 5436 5437 5439 5441 5442 5445 5447 5450 5453 5456 5460 5464 5469 5474 5480 5485 5491 5497 5503
5445 5446 5444 5443 5440 5438 5436 5434 5433 5432 5430 5429 5427 5426 5425 5424 5423 5423 5423 5422 5422 5422 5423 5423 5424 5425 5426 5428 5430 5432 5434 5437 5439 5442 5445 5449 5453 5458 5463 5468 5473 5479 5486 5491
5434 5434 5431 5431 5429 5427 5425 5424 5422 5421 5420 5418 5416 5415 5414 5413 5413 5412 5412 5412 5412 5412 5412 5413 5414 5415 5416 5417 5419 5421 5424 5426 5429 5431 5434 5437 5441 5447 5451 5457 5463 5468 5474 5480
5422 5421 5419 5419 5418 5416 5414 5413 5411 5410 5409 5408 5406 5405 5403 5403 5402 5402 5402 5402 5401 5402 5402 5402 5403 5405 5406 5407 5409 5411 5413 5416 5418 5420 5423 5426 5430 5435 5441 5446 5451 5457 5462 5468
5410 5409 5408 5408 5407 5405 5403 5402 5401 5400 5399 5397 5396 5394 5393 5392 5392 5392 5392 5391 5391 5391 5392 5392 5393 5395 5396 5397 5399 5401 5403 5405 5407 5410 5412 5415 5419 5424 5429 5435 5441 5446 5451 5457
5400 5398 5397 5397 5396 5395 5393 5392 5391 5390 5389 5387 5386 5384 5383 5383 5383 5382 5382 5382 5382 5382 5382 5382 5384 5385 5386 5387 5389 5390 5392 5394 5397 5399 5402 5405 5408 5413 5418 5423 5429 5435 5440 5446
5390 5388 5387 5386 5386 5385 5383 5382 5381 5380 5379 5378 5376 5375 5374 5374 5373 5373 5373 5372 5372 5372 5372 5373 5374 5375 5376 5377 5379 5380 5382 5384 5386 5389 5392 5395 5398 5402 5407 5412 5417 5423 5430 5435
5379 5378 5377 5376 5375 5374 5373 5372 5371 5370 5369 5368 5367 5366 5365 5364 5364 5364 5363 5363 5362 5362 5362 5363 5364 5365 5366 5367 5369 5371 5373 5375 5377 5379 5382 5385 5389 5392 5397 5401 5407 5413 5419 5425
5368 5368 5367 5366 5365 5364 5363 5362 5361 5360 5360 5358 5357 5357 5356 5355 5355 5354 5354 5353 5353 5353 5353 5353 5354 5355 5356 5358 5359 5361 5363 5365 5368 5370 5373 5376 5380 5384 5387 5392 5398 5403 5409 5415
5358 5358 5357 5355 5354 5353 5353 5352 5351 5351 5350 5349 5348 5347 5346 5345 5345 5345 5344 5344 5344 5344 5344 5344 5344 5346 5347 5349 5350 5352 5354 5356 5359 5362 5364 5368 5371 5375 5379 5383 5388 5394 5399 5405
5349 5348 5347 5345 5344 5343 5343 5342 5341 5340 5340 5339 5338 5337 5337 5336 5335 5335 5335 5335 5334 5334 5334 5334 5335 5337 5338 5340 5341 5343 5345 5348 5350 5353 5357 5360 5364 5368 5371 5375 5380 5385 5390 5396
5340 5339 5337 5336 5335 5334 5333 5332 5331 5331 5330 5329 5328 5328 5327 5327 5326 5326 5325 5325 5325 5325 5325 5325 5326 5328 5330 5331 5333 5335 5337 5340 5343 5346 5349 5353 5357 5360 5364 5368 5372 5377 5382 5387
5331 5330 5328 5327 5325 5324 5323 5322 5322 5321 5320 5320 5319 5319 5318 5318 5317 5317 5316 5316 5316 5316 5316 5317 5318 5319 5321 5323 5325 5327 5330 5332 5335 5338 5342 5346 5350 5353 5357 5361 5365 5370 5374 5379
5322 5321 5319 5318 5317 5316 5315 5314 5313 5312 5312 5311 5310 5310 5309 5309 5308 5308 5308 5308 5307 5307 5308 5309 5310 5312 5314 5316 5318 5320 5322 5325 5328 5331 5335 5339 5342 5346 5350 5354 5358 5362 5367 5372
5314 5312 5311 5310 5309 5308 5307 5306 5305 5304 5304 5303 5302 5301 5301 5301 5300 5300 5299 5299 5299 5300 5301 5302 5303 5305 5307 5308 5310 5313 5315 5318 5321 5324 5327 5331 5335 5339 5343 5347 5352 5356 5361 5366
5305 5304 5303 5302 5301 5300 5299 5298 5298 5297 5296 5295 5294 5294 5293 5293 5293 5293 5292 5292 5292 5293 5294 5295 5297 5298 5300 5302 5304 5306 5308 5311 5314 5317 5320 5324 5328 5333 5337 5341 5346 5350 5355 5360
5297 5296 5295 5294 5293 5292 5291 5291 5290 5289 5288 5288 5287 5287 5286 5286 5286 5286 5286 5286 5286 5287 5288 5289 5291 5292 5294 5296 5298 5300 5302 5304 5307 5310 5314 5318 5322 5326 5331 5336 5340 5345 5350 5354
5290 5289 5288 5287 5285 5284 5283 5283 5282 5282 5281 5281 5281 5280 5280 5280 5279 5279 5279 5279 5280 5281 5282 5283 5284 5286 5288 5289 5291 5293 5296 5299 5302 5305 5308 5312 5316 5321 5326 5330 5335 5340 5344 5349